Regional Weather Roundup
Issued by NWS Little Rock, AR

Home | Current Version | Previous Version | Text Only | Print | Product List | Glossary Off
Versions: 1 2 3 4 5 6 7 8 9 10 11 12 13 14 15 16 17 18 19 20 21 22 23 24 25 26 27 28 29 30 31 32 33 34 35 36 37 38 39 40 41 42 43 44 45 46 47 48 49 50

000
ASUS44 KLZK 261205
RWRLZK

WEATHER ROUNDUP FOR ARKANSAS
NATIONAL WEATHER SERVICE LITTLE ROCK AR
600 AM CST FRI DEC 26 2014

NOTE: "FAIR" INDICATES FEW OR NO CLOUDS BELOW 12,000 FEET WITH NO
SIGNIFICANT WEATHER AND/OR OBSTRUCTIONS TO VISIBILITY.

ARZ001-003-010-029-261300-
NORTHWEST ARKANSAS

CITY           SKY/WX    TMP DP  RH WIND       PRES   REMARKS
FAYETTEVILLE   CLEAR     46  40  79 S16       29.99R
6HR MIN TEMP:  45; 6HR MAX TEMP:  46;

FORT SMITH     PTCLDY    40  36  86 NE5       30.02R
6HR MIN TEMP:  37; 6HR MAX TEMP:  46;

HARRISON       PTCLDY    41  38  89 S10       30.03R
6HR MIN TEMP:  39; 6HR MAX TEMP:  46;

BENTONVILLE    CLEAR     46  37  71 S10G16    29.98R
6HR MIN TEMP:  45; 6HR MAX TEMP:  46;

ROGERS         CLEAR     46  40  79 S13       29.98R
6HR MIN TEMP:  45; 6HR MAX TEMP:  47;

SILOAM SPGS    PTCLDY    46  37  71 S13G18    29.99R
6HR MIN TEMP:  46; 6HR MAX TEMP:  46;

HIGHFILL       CLEAR     45  40  82 S12       29.97R
6HR MIN TEMP:  45; 6HR MAX TEMP:  47;

SPRINGDALE     PTCLDY    46  41  81 S14       30.01
$$

ARZ004-005-016-261300-
NORTH CENTRAL ARKANSAS

CITY           SKY/WX    TMP DP  RH WIND       PRES   REMARKS
BATESVILLE     MOCLDY    43  36  75 S6        30.13R
6HR MIN TEMP:  43; 6HR MAX TEMP:  46;

FLIPPIN        CLEAR     45  36  70 S8        30.05R
6HR MIN TEMP:  43; 6HR MAX TEMP:  46;

MTN HOME       CLEAR     42  38  85 S6        30.05R
6HR MIN TEMP:  41; 6HR MAX TEMP:  46;

$$

ARZ040-041-261300-
WEST CENTRAL ARKANSAS

CITY           SKY/WX    TMP DP  RH WIND       PRES   REMARKS
MENA           CLOUDY    52  46  82 S3        30.04R
MOUNT IDA      CLOUDY    49  43  80 CALM      30.05R
6HR MIN TEMP:  49; 6HR MAX TEMP:  50;

$$

ARZ009-017-025-026-028-261300-
NORTHEAST ARKANSAS

CITY           SKY/WX    TMP DP  RH WIND       PRES   REMARKS
CORNING        FAIR      37  36  93 SE6       30.16R
JONESBORO      MOCLDY    38  35  89 CALM      30.17R
6HR MIN TEMP:  37; 6HR MAX TEMP:  40;

NEWPORT        CLOUDY    40  37  89 CALM      30.17R
6HR MIN TEMP:  38; 6HR MAX TEMP:  42;

WALNUT RIDGE   MOCLDY    37  34  87 S9        30.15R
6HR MIN TEMP:  37; 6HR MAX TEMP:  43;

BLYTHEVILLE    CLOUDY    41  36  82 SE8       30.19R
6HR MIN TEMP:  39; 6HR MAX TEMP:  42;

$$

ARZ022-023-033-042-044-261300-
CENTRAL ARKANSAS

CITY           SKY/WX    TMP DP  RH WIND       PRES   REMARKS
LITTLE ROCK    CLOUDY    43  36  76 S3        30.15R
6HR MIN TEMP:  39; 6HR MAX TEMP:  47;

N LITTLE ROCK    N/A     44  39  84 S10       30.15R
6HR MIN TEMP:  42; 6HR MAX TEMP:  46;

JACKSONVILLE   CLOUDY    38  35  91 NE1       30.14R
6HR MIN TEMP:  35; 6HR MAX TEMP:  43;

SEARCY         MOCLDY    40  37  89 S6        30.16R
6HR MIN TEMP:  39; 6HR MAX TEMP:  45;

HOT SPRINGS    CLOUDY    47  41  80 SE6       30.11S
6HR MIN TEMP:  45; 6HR MAX TEMP:  47;

RUSSELLVILLE   CLOUDY    46  41  82 E3        30.08R
6HR MIN TEMP:  37; 6HR MAX TEMP:  46;

CLINTON        CLOUDY    37  36  93 CALM      30.13R
$$

ARZ036-261300-
EAST ARKANSAS

CITY           SKY/WX    TMP DP  RH WIND       PRES   REMARKS
WEST MEMPHIS   CLOUDY    41  38  89 S7        30.17R
6HR MIN TEMP:  40; 6HR MAX TEMP:  43;

$$

ARZ050-053-066-070-073-261300-
SOUTHWEST ARKANSAS

CITY           SKY/WX    TMP DP  RH WIND       PRES   REMARKS
ARKADELPHIA    PTSUNNY   40  40 100 CALM      30.13S
6HR MIN TEMP:  37; 6HR MAX TEMP:  42;

CAMDEN         CLOUDY    43  36  75 MISG      30.14S
TEXARKANA      CLOUDY    46  43  89 SE6       30.07F
6HR MIN TEMP:  43; 6HR MAX TEMP:  46;

EL DORADO      CLOUDY    45  37  73 SE5       30.13S
6HR MIN TEMP:  42; 6HR MAX TEMP:  46;

DE QUEEN       CLOUDY    46  43  89 E6        30.05F
6HR MIN TEMP:  44; 6HR MAX TEMP:  48;

$$

ARZ056-057-069-261300-
SOUTHEAST ARKANSAS

CITY           SKY/WX    TMP DP  RH WIND       PRES   REMARKS
PINE BLUFF     MOCLDY    43  36  76 S8        30.15S
6HR MIN TEMP:  43; 6HR MAX TEMP:  45;

STUTTGART      CLOUDY    43  36  75 S10       30.16R
6HR MIN TEMP:  43; 6HR MAX TEMP:  45;

MONTICELLO     MOCLDY    41  36  82 S7        30.17R
6HR MIN TEMP:  38; 6HR MAX TEMP:  42;


$$





USA.gov is the U.S. government's official web portal to all federal, state and local government web resources and services.